Time,TemperatureF,DewpointF,PressureIn,WindDirection,WindDirectionDegrees,WindSpeedMPH,WindSpeedGustMPH,Humidity,HourlyPrecipIn,Conditions,Clouds,dailyrainin,SoftwareType,DateUTC
2013-02-18 00:06:00,31.3,24.0,29.75,South,184,7.0,23.0,74,0.00,,,0.00,weatherlink.com 1.10,2013-02-18 06:06:00,
2013-02-18 00:23:00,31.5,24.0,29.75,South,170,4.0,17.0,73,0.00,,,0.00,weatherlink.com 1.10,2013-02-18 06:23:00,
2013-02-18 00:40:00,31.4,24.0,29.73,SSE,156,11.0,20.0,73,0.00,,,0.00,weatherlink.com 1.10,2013-02-18 06:40:00,
2013-02-18 00:56:00,31.2,24.0,29.73,SSW,201,12.0,18.0,74,0.00,,,0.00,weatherlink.com 1.10,2013-02-18 06:56:00,
2013-02-18 01:12:00,31.2,24.0,29.72,SSE,157,9.0,15.0,74,0.00,,,0.00,weatherlink.com 1.10,2013-02-18 07:12:00,
2013-02-18 01:28:00,31.1,24.0,29.71,SSE,165,9.0,19.0,74,0.00,,,0.00,weatherlink.com 1.10,2013-02-18 07:28:00,
2013-02-18 01:44:00,31.0,24.0,29.71,SSE,158,8.0,18.0,74,0.00,,,0.00,weatherlink.com 1.10,2013-02-18 07:44:00,
2013-02-18 01:59:00,31.1,24.0,29.70,SSE,165,7.0,15.0,75,0.00,,,0.00,weatherlink.com 1.10,2013-02-18 07:59:00,
2013-02-18 02:16:00,31.2,24.0,29.69,SSW,195,7.0,18.0,75,0.00,,,0.00,weatherlink.com 1.10,2013-02-18 08:16:00,
2013-02-18 02:32:00,31.4,24.0,29.68,South,178,12.0,16.0,75,0.00,,,0.00,weatherlink.com 1.10,2013-02-18 08:32:00,
2013-02-18 02:49:00,31.3,24.0,29.68,SW,214,9.0,19.0,75,0.00,,,0.00,weatherlink.com 1.10,2013-02-18 08:49:00,
2013-02-18 03:05:00,31.2,24.0,29.67,South,171,8.0,19.0,76,0.00,,,0.00,weatherlink.com 1.10,2013-02-18 09:05:00,
2013-02-18 03:20:00,31.0,24.0,29.67,South,176,10.0,19.0,76,0.00,,,0.00,weatherlink.com 1.10,2013-02-18 09:20:00,
2013-02-18 03:37:00,30.6,24.0,29.66,South,174,6.0,11.0,77,0.00,,,0.00,weatherlink.com 1.10,2013-02-18 09:37:00,
2013-02-18 03:52:00,30.6,24.0,29.65,SSE,150,11.0,18.0,77,0.00,,,0.00,weatherlink.com 1.10,2013-02-18 09:52:00,
2013-02-18 04:09:00,30.5,24.0,29.64,South,174,8.0,15.0,78,0.00,,,0.00,weatherlink.com 1.10,2013-02-18 10:09:00,
2013-02-18 04:27:00,30.3,24.0,29.64,SSE,164,5.0,16.0,78,0.00,,,0.00,weatherlink.com 1.10,2013-02-18 10:27:00,
2013-02-18 04:42:00,30.1,24.0,29.63,South,176,7.0,14.0,79,0.00,,,0.00,weatherlink.com 1.10,2013-02-18 10:42:00,
2013-02-18 05:00:00,30.0,24.0,29.63,SSW,211,6.0,15.0,79,0.00,,,0.00,weatherlink.com 1.10,2013-02-18 11:00:00,
2013-02-18 05:14:00,29.9,24.0,29.62,SSW,203,6.0,16.0,80,0.00,,,0.00,weatherlink.com 1.10,2013-02-18 11:14:00,
2013-02-18 05:30:00,29.9,24.0,29.62,South,169,7.0,12.0,80,0.00,,,0.00,weatherlink.com 1.10,2013-02-18 11:30:00,
2013-02-18 05:45:00,29.7,25.0,29.62,South,182,7.0,13.0,81,0.00,,,0.00,weatherlink.com 1.10,2013-02-18 11:45:00,
2013-02-18 06:03:00,29.6,24.0,29.63,SW,214,4.0,10.0,81,0.00,,,0.00,weatherlink.com 1.10,2013-02-18 12:03:00,
2013-02-18 06:17:00,29.4,24.0,29.62,SSW,209,3.0,5.0,81,0.00,,,0.00,weatherlink.com 1.10,2013-02-18 12:17:00,
2013-02-18 06:33:00,29.1,24.0,29.62,SSW,198,6.0,8.0,82,0.00,,,0.00,weatherlink.com 1.10,2013-02-18 12:33:00,
2013-02-18 06:49:00,28.9,24.0,29.62,South,178,3.0,10.0,82,0.00,,,0.00,weatherlink.com 1.10,2013-02-18 12:49:00,
2013-02-18 07:07:00,28.7,24.0,29.62,South,173,6.0,12.0,83,0.00,,,0.00,weatherlink.com 1.10,2013-02-18 13:07:00,
2013-02-18 07:23:00,28.5,24.0,29.62,SW,216,7.0,9.0,83,0.00,,,0.00,weatherlink.com 1.10,2013-02-18 13:23:00,
2013-02-18 07:38:00,28.3,24.0,29.62,South,184,2.0,5.0,84,0.00,,,0.00,weatherlink.com 1.10,2013-02-18 13:38:00,
2013-02-18 07:55:00,28.3,24.0,29.62,SW,217,1.0,5.0,84,0.00,,,0.00,weatherlink.com 1.10,2013-02-18 13:55:00,
2013-02-18 08:11:00,28.7,25.0,29.61,WSW,239,2.0,3.0,84,0.00,,,0.00,weatherlink.com 1.10,2013-02-18 14:11:00,
2013-02-18 08:27:00,29.6,26.0,29.61,West,265,1.0,4.0,85,0.00,,,0.00,weatherlink.com 1.10,2013-02-18 14:27:00,
2013-02-18 08:43:00,30.7,27.0,29.61,WNW,293,2.0,5.0,85,0.00,,,0.00,weatherlink.com 1.10,2013-02-18 14:43:00,
2013-02-18 08:58:00,31.6,27.0,29.61,WSW,252,3.0,5.0,84,0.00,,,0.00,weatherlink.com 1.10,2013-02-18 14:58:00,
2013-02-18 09:17:00,32.5,28.0,29.61,West,263,3.0,4.0,84,0.00,,,0.00,weatherlink.com 1.10,2013-02-18 15:17:00,
2013-02-18 09:31:00,33.7,29.0,29.62,WNW,295,6.0,6.0,84,0.00,,,0.00,weatherlink.com 1.10,2013-02-18 15:31:00,
2013-02-18 09:48:00,34.6,30.0,29.62,West,268,4.0,12.0,83,0.00,,,0.00,weatherlink.com 1.10,2013-02-18 15:48:00,
2013-02-18 10:04:00,34.4,30.0,29.62,West,272,4.0,10.0,83,0.00,,,0.00,weatherlink.com 1.10,2013-02-18 16:04:00,
2013-02-18 10:20:00,34.6,30.0,29.62,WNW,288,4.0,7.0,82,0.00,,,0.00,weatherlink.com 1.10,2013-02-18 16:20:00,
2013-02-18 10:37:00,34.9,30.0,29.61,WNW,287,2.0,7.0,82,0.00,,,0.00,weatherlink.com 1.10,2013-02-18 16:37:00,
2013-02-18 10:52:00,35.3,30.0,29.61,WNW,282,4.0,8.0,82,0.00,,,0.00,weatherlink.com 1.10,2013-02-18 16:52:00,
2013-02-18 11:08:00,35.6,31.0,29.60,NW,306,4.0,7.0,82,0.00,,,0.00,weatherlink.com 1.10,2013-02-18 17:08:00,
2013-02-18 11:24:00,35.7,31.0,29.60,West,267,7.0,11.0,82,0.00,,,0.00,weatherlink.com 1.10,2013-02-18 17:24:00,
2013-02-18 11:40:00,35.5,31.0,29.60,WNW,288,4.0,10.0,83,0.00,,,0.00,weatherlink.com 1.10,2013-02-18 17:40:00,
2013-02-18 11:55:00,34.9,30.0,29.60,NW,312,8.0,9.0,83,0.00,,,0.00,weatherlink.com 1.10,2013-02-18 17:55:00,
2013-02-18 12:12:00,34.6,30.0,29.60,West,269,3.0,12.0,84,0.00,,,0.00,weatherlink.com 1.10,2013-02-18 18:12:00,
2013-02-18 12:29:00,34.2,30.0,29.59,WNW,287,4.0,10.0,85,0.00,,,0.00,weatherlink.com 1.10,2013-02-18 18:29:00,
2013-02-18 12:45:00,32.3,29.0,29.60,West,273,4.0,10.0,86,0.00,,,0.00,weatherlink.com 1.10,2013-02-18 18:45:00,
2013-02-18 13:00:00,29.7,26.0,29.60,WNW,300,5.0,14.0,86,0.00,,,0.00,weatherlink.com 1.10,2013-02-18 19:00:00,
2013-02-18 13:16:00,29.2,26.0,29.61,WNW,284,7.0,9.0,87,0.00,,,0.00,weatherlink.com 1.10,2013-02-18 19:16:00,
2013-02-18 13:34:00,28.8,26.0,29.61,WNW,284,2.0,9.0,88,0.00,,,0.00,weatherlink.com 1.10,2013-02-18 19:34:00,
2013-02-18 13:48:00,28.2,25.0,29.62,WNW,298,5.0,14.0,88,0.00,,,0.00,weatherlink.com 1.10,2013-02-18 19:48:00,
2013-02-18 14:06:00,27.7,24.0,29.64,NW,311,7.0,9.0,87,0.00,,,0.00,weatherlink.com 1.10,2013-02-18 20:06:00,
2013-02-18 14:21:00,26.5,23.0,29.64,West,269,4.0,9.0,87,0.00,,,0.00,weatherlink.com 1.10,2013-02-18 20:21:00,
2013-02-18 14:37:00,25.5,22.0,29.65,WNW,290,5.0,11.0,87,0.00,,,0.00,weatherlink.com 1.10,2013-02-18 20:37:00,
2013-02-18 14:53:00,23.7,20.0,29.66,NNW,338,10.0,16.0,87,0.00,,,0.00,weatherlink.com 1.10,2013-02-18 20:53:00,
2013-02-18 15:09:00,23.0,20.0,29.67,West,271,3.0,15.0,87,0.00,,,0.00,weatherlink.com 1.10,2013-02-18 21:09:00,
2013-02-18 15:26:00,22.1,19.0,29.68,WNW,292,6.0,13.0,86,0.00,,,0.00,weatherlink.com 1.10,2013-02-18 21:26:00,
2013-02-18 15:41:00,20.9,17.0,29.68,West,281,9.0,14.0,85,0.00,,,0.00,weatherlink.com 1.10,2013-02-18 21:41:00,
2013-02-18 15:58:00,20.6,17.0,29.68,West,273,6.0,14.0,85,0.00,,,0.00,weatherlink.com 1.10,2013-02-18 21:58:00,
2013-02-18 16:14:00,19.2,15.0,29.69,WNW,301,5.0,17.0,85,0.00,,,0.00,weatherlink.com 1.10,2013-02-18 22:14:00,
2013-02-18 16:31:00,18.8,15.0,29.70,NW,304,10.0,11.0,84,0.00,,,0.00,weatherlink.com 1.10,2013-02-18 22:31:00,
2013-02-18 16:45:00,18.5,15.0,29.70,West,268,12.0,12.0,84,0.00,,,0.00,weatherlink.com 1.10,2013-02-18 22:45:00,
2013-02-18 17:06:00,17.7,13.0,29.70,NW,315,5.0,16.0,83,0.00,,,0.00,weatherlink.com 1.10,2013-02-18 23:06:00,
2013-02-18 17:18:00,16.8,13.0,29.70,West,271,6.0,15.0,83,0.00,,,0.00,weatherlink.com 1.10,2013-02-18 23:18:00,
2013-02-18 17:36:00,16.2,12.0,29.71,NW,314,6.0,15.0,83,0.00,,,0.00,weatherlink.com 1.10,2013-02-18 23:36:00,
2013-02-18 18:07:00,15.2,11.0,29.72,NW,314,10.0,16.0,82,0.00,,,0.00,weatherlink.com 1.10,2013-02-19 00:07:00,
2013-02-18 18:23:00,14.7,10.0,29.73,WNW,290,5.0,12.0,82,0.00,,,0.00,weatherlink.com 1.10,2013-02-19 00:23:00,
2013-02-18 18:55:00,13.8,9.0,29.76,NW,307,3.0,13.0,82,0.00,,,0.00,weatherlink.com 1.10,2013-02-19 00:55:00,
2013-02-18 19:13:00,13.4,9.0,29.76,WNW,294,6.0,10.0,82,0.00,,,0.00,weatherlink.com 1.10,2013-02-19 01:13:00,
2013-02-18 19:27:00,12.9,8.0,29.76,NNW,327,5.0,14.0,82,0.00,,,0.00,weatherlink.com 1.10,2013-02-19 01:27:00,
2013-02-18 19:44:00,12.6,8.0,29.75,NW,324,7.0,14.0,82,0.00,,,0.00,weatherlink.com 1.10,2013-02-19 01:44:00,
2013-02-18 19:59:00,12.2,8.0,29.75,WNW,288,7.0,12.0,82,0.00,,,0.00,weatherlink.com 1.10,2013-02-19 01:59:00,
2013-02-18 20:15:00,11.8,7.0,29.75,West,279,5.0,14.0,82,0.00,,,0.00,weatherlink.com 1.10,2013-02-19 02:15:00,
2013-02-18 20:32:00,11.4,7.0,29.76,NW,312,9.0,13.0,82,0.00,,,0.00,weatherlink.com 1.10,2013-02-19 02:32:00,
2013-02-18 20:47:00,10.9,6.0,29.76,WNW,290,5.0,15.0,82,0.00,,,0.00,weatherlink.com 1.10,2013-02-19 02:47:00,
2013-02-18 21:05:00,10.6,6.0,29.77,West,262,4.0,9.0,82,0.00,,,0.00,weatherlink.com 1.10,2013-02-19 03:05:00,
2013-02-18 21:20:00,10.1,6.0,29.77,NNW,347,6.0,12.0,83,0.00,,,0.00,weatherlink.com 1.10,2013-02-19 03:20:00,
2013-02-18 21:39:00,9.6,5.0,29.77,NW,313,4.0,14.0,83,0.00,,,0.00,weatherlink.com 1.10,2013-02-19 03:39:00,
2013-02-18 21:54:00,9.4,5.0,29.77,WNW,287,5.0,15.0,83,0.00,,,0.00,weatherlink.com 1.10,2013-02-19 03:54:00,
2013-02-18 22:08:00,9.4,5.0,29.78,WNW,295,8.0,14.0,83,0.00,,,0.00,weatherlink.com 1.10,2013-02-19 04:08:00,
2013-02-18 22:24:00,9.4,5.0,29.78,NW,319,10.0,11.0,83,0.00,,,0.00,weatherlink.com 1.10,2013-02-19 04:24:00,
2013-02-18 22:40:00,9.0,5.0,29.79,WNW,282,5.0,11.0,83,0.00,,,0.00,weatherlink.com 1.10,2013-02-19 04:40:00,
2013-02-18 22:58:00,8.6,5.0,29.79,WNW,282,4.0,16.0,83,0.00,,,0.00,weatherlink.com 1.10,2013-02-19 04:58:00,
2013-02-18 23:17:00,8.1,4.0,29.80,WNW,296,6.0,11.0,83,0.00,,,0.00,weatherlink.com 1.10,2013-02-19 05:17:00,
2013-02-18 23:29:00,7.8,4.0,29.80,WNW,297,7.0,17.0,83,0.00,,,0.00,weatherlink.com 1.10,2013-02-19 05:29:00,
2013-02-18 23:47:00,7.4,3.0,29.81,West,275,3.0,13.0,83,0.00,,,0.00,weatherlink.com 1.10,2013-02-19 05:47:00,